Location: Karlovy Vary
(50.2170°N, 12.9000°E)
Time: 21:44:06
(UTC+01:00)

ISS - Visible Passes

Search period start: 01 November 2024 00:00
Search period end: 11 November 2024 00:00
Orbit: 408 x 420 km, 51.6° (Epoch: 01 November)

Date Brightness Start Highest point End Pass type
(mag) Time Alt. Az. Time Alt. Az. Time Alt. Az.
01 Nov -0.3 03:45:50 11° E 03:45:50 11° E 03:46:00 10° E visible
01 Nov -3.5 05:18:42 42° WSW 05:19:23 51° SSW 05:22:35 10° SE visible
02 Nov -2.1 04:31:36 30° ESE 04:31:36 30° ESE 04:33:26 10° ESE visible
02 Nov -1.9 06:04:28 12° W 06:06:25 18° SW 06:08:45 10° S visible
03 Nov -2.5 05:17:22 27° SSW 05:17:22 27° SSW 05:20:05 10° SSE visible
04 Nov -1.2 04:30:18 16° SE 04:30:18 16° SE 04:31:04 10° SE visible
05 Nov -1.2 05:16:07 11° SSW 05:16:07 11° SSW 05:16:23 10° SSW visible
